When you browse on this site, cookies collect data to enhance your experience and personalize the content and advertising you see.
Visit our Privacy Policy to learn more. By continuing to use the site, you agree to this use of cookies and data.
  • In United Kingdom
  • List of Countries
  • For 7 days
  • Water Temperature
  • Weather Map
  • Weather Widgets
  • user-avatar
    Login

    Hourly Weather Jaú

    Today, 7 December, Saturday

    Time Temperature Precipitation Wind Pressure Humidity
    00:00 +25°C° 0 mm 4 mps 762 mmHg 64%
    01:00 +25°C° 0 mm 4 mps 762 mmHg 62%
    02:00 +23°C° 0 mm 4 mps 762 mmHg 61%
    03:00 +23°C° 0 mm 4 mps 761 mmHg 59%
    04:00 +23°C° 0 mm 4 mps 762 mmHg 58%
    05:00 +23°C° 0 mm 4 mps 762 mmHg 57%
    06:00 +23°C° 0 mm 4 mps 762 mmHg 57%
    07:00 +23°C° 0 mm 4 mps 762 mmHg 57%
    08:00 +25°C° 0 mm 5 mps 762 mmHg 57%
    09:00 +25°C° 0 mm 5 mps 762 mmHg 57%
    10:00 +25°C° 0 mm 4 mps 761 mmHg 56%
    11:00 +25°C° 0 mm 4 mps 761 mmHg 55%
    12:00 +25°C° 0 mm 3 mps 760 mmHg 55%
    13:00 +25°C° 0 mm 3 mps 760 mmHg 55%
    14:00 +25°C° 0 mm 2 mps 760 mmHg 55%
    15:00 +26°C° 0 mm 2 mps 759 mmHg 55%
    16:00 +25°C° 0 mm 2 mps 760 mmHg 57%
    17:00 +25°C° 0 mm 2 mps 760 mmHg 59%
    18:00 +25°C° 0 mm 2 mps 760 mmHg 61%
    19:00 +25°C° 0 mm 2 mps 760 mmHg 63%
    20:00 +25°C° 0 mm 2 mps 760 mmHg 65%
    21:00 +25°C° 0 mm 2 mps 760 mmHg 68%
    22:00 +25°C° 0 mm 3 mps 760 mmHg 65%
    23:00 +25°C° 0 mm 4 mps 760 mmHg 61%

    Tomorrow, 8 December, Sunday

    Time Temperature Precipitation Wind Pressure Humidity
    00:00 +25°C° 0 mm 5 mps 760 mmHg 58%
    01:00 +25°C° 0 mm 5 mps 760 mmHg 58%
    02:00 +25°C° 0 mm 5 mps 760 mmHg 57%
    03:00 +25°C° 0 mm 5 mps 760 mmHg 56%
    04:00 +25°C° 0 mm 4 mps 760 mmHg 55%
    05:00 +25°C° 0 mm 3 mps 761 mmHg 55%
    06:00 +25°C° 0 mm 1 mps 761 mmHg 54%
    07:00 +25°C° 0 mm 2 mps 761 mmHg 54%
    08:00 +25°C° 0 mm 2 mps 761 mmHg 53%
    09:00 +25°C° 0 mm 3 mps 762 mmHg 53%
    10:00 +25°C° 0 mm 3 mps 761 mmHg 52%
    11:00 +25°C° 0 mm 3 mps 761 mmHg 51%
    12:00 +25°C° 0 mm 3 mps 761 mmHg 49%
    13:00 +25°C° 0 mm 2 mps 760 mmHg 50%
    14:00 +25°C° 0 mm 2 mps 760 mmHg 50%
    15:00 +25°C° 0 mm 2 mps 759 mmHg 50%
    16:00 +25°C° 0 mm 3 mps 760 mmHg 53%
    17:00 +25°C° 0 mm 3 mps 760 mmHg 55%
    18:00 +25°C° 0 mm 4 mps 761 mmHg 58%
    19:00 +25°C° 0 mm 4 mps 761 mmHg 60%
    20:00 +25°C° 0 mm 4 mps 761 mmHg 62%
    21:00 +25°C° 0 mm 5 mps 761 mmHg 63%
    22:00 +25°C° 0 mm 5 mps 761 mmHg 66%
    23:00 +25°C° 0 mm 5 mps 761 mmHg 69%

    Day after tomorrow, 9 December, Monday

    Time Temperature Precipitation Wind Pressure Humidity
    00:00 +25°C° 0 mm 5 mps 761 mmHg 72%
    01:00 +24°C° 0 mm 6 mps 761 mmHg 73%
    02:00 +24°C° 0 mm 6 mps 761 mmHg 74%
    03:00 +23°C° 0 mm 6 mps 761 mmHg 75%
    04:00 +23°C° 0 mm 7 mps 761 mmHg 76%
    05:00 +23°C° 0 mm 7 mps 761 mmHg 76%
    06:00 +23°C° 0 mm 7 mps 761 mmHg 76%
    07:00 +23°C° 0.1 mm 7 mps 762 mmHg 76%
    08:00 +23°C° 0.1 mm 7 mps 762 mmHg 76%
    09:00 +23°C° 0.1 mm 6 mps 762 mmHg 76%
    10:00 +23°C° 0 mm 6 mps 761 mmHg 76%
    11:00 +23°C° 0 mm 6 mps 761 mmHg 76%
    12:00 +23°C° 0 mm 6 mps 761 mmHg 76%
    13:00 +23°C° 0.4 mm 6 mps 760 mmHg 77%
    14:00 +23°C° 0.4 mm 6 mps 760 mmHg 78%
    15:00 +23°C° 0.4 mm 6 mps 759 mmHg 79%
    16:00 +23°C° 0.8 mm 6 mps 759 mmHg 79%
    17:00 +23°C° 0.8 mm 6 mps 760 mmHg 79%
    18:00 +23°C° 0.8 mm 6 mps 760 mmHg 80%
    19:00 +23°C° 0.8 mm 6 mps 760 mmHg 80%
    20:00 +23°C° 0.8 mm 6 mps 760 mmHg 81%
    21:00 +23°C° 0.8 mm 6 mps 760 mmHg 82%
    22:00 +23°C° 1 mm 6 mps 760 mmHg 83%
    23:00 +23°C° 1 mm 5 mps 760 mmHg 84%

    10 December, Tuesday

    Time Temperature Precipitation Wind Pressure Humidity
    00:00 +23°C° 1 mm 5 mps 759 mmHg 85%
    01:00 +23°C° 0.8 mm 6 mps 759 mmHg 86%
    02:00 +23°C° 0.8 mm 6 mps 758 mmHg 87%
    03:00 +23°C° 0.8 mm 6 mps 758 mmHg 88%
    04:00 +23°C° 0.1 mm 5 mps 758 mmHg 86%
    05:00 +25°C° 0.1 mm 4 mps 758 mmHg 85%
    06:00 +25°C° 0.1 mm 3 mps 759 mmHg 84%
    07:00 +25°C° 0 mm 3 mps 759 mmHg 83%
    08:00 +25°C° 0 mm 3 mps 759 mmHg 83%
    09:00 +25°C° 0 mm 4 mps 759 mmHg 83%
    10:00 +25°C° 0.4 mm 3 mps 759 mmHg 84%
    11:00 +25°C° 0.4 mm 3 mps 758 mmHg 84%
    12:00 +24°C° 0.4 mm 3 mps 757 mmHg 85%
    13:00 +25°C° 0.1 mm 3 mps 757 mmHg 84%
    14:00 +25°C° 0.1 mm 3 mps 756 mmHg 83%
    15:00 +25°C° 0.1 mm 2 mps 756 mmHg 82%
    16:00 +25°C° 0.1 mm 3 mps 756 mmHg 82%
    17:00 +25°C° 0.1 mm 3 mps 756 mmHg 82%
    18:00 +25°C° 0.1 mm 3 mps 756 mmHg 82%
    19:00 +25°C° 0.1 mm 4 mps 756 mmHg 82%
    20:00 +25°C° 0.1 mm 4 mps 757 mmHg 83%
    21:00 +25°C° 0.1 mm 4 mps 757 mmHg 84%
    22:00 +24°C° 0.3 mm 6 mps 757 mmHg 84%
    23:00 +23°C° 0.3 mm 7 mps 757 mmHg 84%

    11 December, Wednesday

    Time Temperature Precipitation Wind Pressure Humidity
    00:00 +23°C° 0.3 mm 8 mps 758 mmHg 84%
    01:00 +23°C° 0 mm 8 mps 758 mmHg 83%
    02:00 +23°C° 0 mm 8 mps 758 mmHg 82%
    03:00 +23°C° 0 mm 8 mps 758 mmHg 81%
    04:00 +22°C° 0 mm 8 mps 758 mmHg 81%
    05:00 +22°C° 0 mm 8 mps 759 mmHg 80%
    06:00 +22°C° 0 mm 9 mps 759 mmHg 80%
    07:00 +22°C° 0 mm 8 mps 759 mmHg 76%
    08:00 +22°C° 0 mm 8 mps 760 mmHg 73%
    09:00 +22°C° 0 mm 8 mps 760 mmHg 69%
    10:00 +22°C° 0 mm 8 mps 760 mmHg 68%
    11:00 +22°C° 0 mm 8 mps 760 mmHg 67%
    12:00 +23°C° 0 mm 8 mps 759 mmHg 65%
    13:00 +23°C° 0 mm 8 mps 759 mmHg 65%
    14:00 +23°C° 0 mm 8 mps 759 mmHg 65%
    15:00 +23°C° 0 mm 8 mps 759 mmHg 65%
    16:00 +23°C° 0 mm 8 mps 759 mmHg 65%
    17:00 +22°C° 0 mm 7 mps 759 mmHg 65%
    18:00 +22°C° 0 mm 7 mps 760 mmHg 65%
    19:00 +22°C° 0 mm 7 mps 760 mmHg 65%
    20:00 +22°C° 0 mm 7 mps 760 mmHg 65%
    21:00 +22°C° 0 mm 7 mps 761 mmHg 65%
    22:00 +22°C° 0 mm 7 mps 761 mmHg 64%
    23:00 +22°C° 0 mm 6 mps 760 mmHg 63%

    12 December, Thursday

    Time Temperature Precipitation Wind Pressure Humidity
    00:00 +22°C° 0 mm 6 mps 760 mmHg 62%
    01:00 +22°C° 0 mm 6 mps 760 mmHg 61%
    02:00 +22°C° 0 mm 6 mps 760 mmHg 60%
    03:00 +21°C° 0 mm 6 mps 760 mmHg 60%
    04:00 +21°C° 0 mm 6 mps 760 mmHg 60%
    05:00 +21°C° 0 mm 6 mps 760 mmHg 60%
    06:00 +21°C° 0 mm 6 mps 760 mmHg 60%
    07:00 +21°C° 0 mm 6 mps 761 mmHg 59%
    08:00 +21°C° 0 mm 5 mps 761 mmHg 59%
    09:00 +22°C° 0 mm 5 mps 761 mmHg 59%
    10:00 +22°C° 0 mm 5 mps 761 mmHg 58%
    11:00 +22°C° 0 mm 5 mps 760 mmHg 57%
    12:00 +22°C° 0 mm 5 mps 760 mmHg 57%
    13:00 +22°C° 0 mm 5 mps 760 mmHg 55%
    14:00 +22°C° 0 mm 4 mps 759 mmHg 54%
    15:00 +24°C° 0 mm 3 mps 759 mmHg 53%
    16:00 +22°C° 0 mm 3 mps 759 mmHg 52%
    17:00 +23°C° 0 mm 2 mps 759 mmHg 52%
    18:00 +23°C° 0 mm 2 mps 759 mmHg 52%
    19:00 +23°C° 0 mm 2 mps 759 mmHg 52%
    20:00 +23°C° 0 mm 1 mps 759 mmHg 51%
    21:00 +23°C° 0 mm 1 mps 759 mmHg 51%
    22:00 +23°C° 0 mm 1 mps 759 mmHg 52%
    23:00 +23°C° 0 mm 1 mps 759 mmHg 53%
    Show more